EW5026 Weather Reports


Display with metric or nautical units.
time (UTC)temp
F
wind
direction
speed
MPH
gust
MPH
rain 1hr
in
rain 24hr
in
rain mn
in
humidity
%
barometer
mb
20260502234002 55 342 0.0 3.0 0.00 0.00 0.00 42 1016.5
20260502233500 55 340 1.0 3.0 0.00 0.00 0.00 45 1016.5
20260502233001 55 246 0.0 2.0 0.00 0.00 0.00 39 1016.6
20260502232600 55 235 0.0 3.0 0.00 0.00 0.00 41 1016.6
20260502232100 55 235 1.0 3.0 0.00 0.00 0.00 42 1016.7
20260502231603 55 302 1.0 3.0 0.00 0.00 0.00 41 1016.7
20260502231059 55 300 1.0 3.0 0.00 0.00 0.00 42 1016.7
20260502230559 54 300 1.0 4.0 0.00 0.00 0.00 42 1016.7
20260502230059 54 257 1.0 5.0 0.00 0.00 0.00 45 1016.7
20260502225557 54 11 2.0 5.0 0.00 0.00 0.00 44 1016.7
20260502225058 54 290 2.0 5.0 0.00 0.00 0.00 44 1016.8
20260502224557 54 299 2.0 6.0 0.00 0.00 0.00 46 1016.8
20260502224056 54 275 3.0 8.0 0.00 0.00 0.00 43 1016.8
20260502223556 54 293 3.0 9.0 0.00 0.00 0.00 43 1016.9
20260502223056 55 295 5.0 9.0 0.00 0.00 0.00 43 1016.9
20260502222558 55 275 4.0 10.0 0.00 0.00 0.00 45 1016.9
20260502222054 55 278 5.0 10.0 0.00 0.00 0.00 44 1016.9
20260502221554 55 296 5.0 9.0 0.00 0.00 0.00 44 1016.9
20260502221058 55 313 4.0 11.0 0.00 0.00 0.00 45 1017.0
20260502220558 55 266 5.0 13.0 0.00 0.00 0.00 41 1017.0
20260502220055 55 297 9.0 13.0 0.00 0.00 0.00 43 1016.9
20260502215555 56 317 7.0 10.0 0.00 0.00 0.00 43 1016.9
20260502215055 56 270 5.0 11.0 0.00 0.00 0.00 40 1016.9
20260502214602 56 274 5.0 13.0 0.00 0.00 0.00 42 1016.9
20260502214053 56 259 7.0 13.0 0.00 0.00 0.00 44 1016.8
20260502213553 56 282 9.0 13.0 0.00 0.00 0.00 40 1016.9
20260502213053 57 239 8.0 13.0 0.00 0.00 0.00 43 1016.9
20260502212553 57 298 6.0 12.0 0.00 0.00 0.00 41 1016.9
20260502212055 57 279 6.0 12.0 0.00 0.00 0.00 41 1017.0
20260502211551 57 243 4.0 11.0 0.00 0.00 0.00 44 1017.0
20260502211052 57 304 6.0 11.0 0.00 0.00 0.00 40 1017.0
20260502210550 57 267 6.0 11.0 0.00 0.00 0.00 45 1017.0
20260502210057 57 275 6.0 13.0 0.00 0.00 0.00 41 1017.1
20260502205549 56 265 9.0 14.0 0.00 0.00 0.00 42 1017.2
20260502205049 56 313 8.0 14.0 0.00 0.00 0.00 42 1017.1
20260502204549 57 306 5.0 11.0 0.00 0.00 0.00 41 1017.2
20260502204048 57 304 6.0 11.0 0.00 0.00 0.00 42 1017.3
20260502203551 56 325 6.0 11.0 0.00 0.00 0.00 45 1017.3
20260502203046 55 322 5.0 11.0 0.00 0.00 0.00 47 1017.4
20260502202546 55 329 6.0 17.0 0.00 0.00 0.00 47 1017.5
20260502202046 56 325 8.0 17.0 0.00 0.00 0.00 45 1017.4
20260502201549 56 321 7.0 13.0 0.00 0.00 0.00 41 1017.5
20260502201045 57 293 5.0 11.0 0.00 0.00 0.00 44 1017.7
20260502200545 56 338 6.0 15.0 0.00 0.00 0.00 40 1017.7
20260502200044 56 240 4.0 16.0 0.00 0.00 0.00 40 1017.7
20260502195544 56 287 9.0 16.0 0.00 0.00 0.00 44 1017.8
20260502195043 56 271 6.0 11.0 0.00 0.00 0.00 41 1017.9
20260502194542 57 323 8.0 15.0 0.00 0.00 0.00 47 1018.0
20260502194042 56 342 9.0 15.0 0.00 0.00 0.00 42 1018.0
20260502193543 56 309 4.0 13.0 0.00 0.00 0.00 42 1018.0
20260502193042 56 313 6.0 16.0 0.00 0.00 0.00 45 1018.1
20260502192539 56 330 9.0 14.0 0.00 0.00 0.00 46 1018.2
20260502192038 55 320 9.0 13.0 0.00 0.00 0.00 44 1018.3
20260502191538 54 328 7.0 14.0 0.00 0.00 0.00 48 1018.3
20260502191038 55 321 7.0 14.0 0.00 0.00 0.00 44 1018.4
20260502190538 56 346 10.0 14.0 0.00 0.00 0.00 45 1018.4
20260502190042 55 313 9.0 15.0 0.00 0.00 0.00 44 1018.5
20260502185537 55 304 9.0 13.0 0.00 0.00 0.00 46 1018.5
20260502185037 55 272 4.0 11.0 0.00 0.00 0.00 43 1018.5
20260502184554 55 355 5.0 13.0 0.00 0.00 0.00 44 1018.5
20260502184034 54 348 9.0 13.0 0.00 0.00 0.00 46 1018.6
20260502183534 53 271 6.0 11.0 0.00 0.00 0.00 44 1018.6
20260502183034 54 262 6.0 12.0 0.00 0.00 0.00 40 1018.6
20260502182535 54 288 6.0 12.0 0.00 0.00 0.00 47 1018.7
20260502182032 53 298 6.0 12.0 0.00 0.00 0.00 47 1018.8
20260502181533 53 326 8.0 12.0 0.00 0.00 0.00 46 1018.9
20260502181032 53 342 4.0 10.0 0.00 0.00 0.00 45 1018.8
20260502180532 53 297 4.0 12.0 0.00 0.00 0.00 43 1018.9
20260502164026 51 290 3.0 9.0 0.00 0.00 0.00 50 1019.5
20260502163526 51 9 5.0 9.0 0.00 0.00 0.00 46 1019.5
20260502163032 51 355 2.0 9.0 0.00 0.00 0.00 46 1019.5
20260502162526 51 306 3.0 10.0 0.00 0.00 0.00 45 1019.6
20260502162030 52 254 7.0 10.0 0.00 0.00 0.00 46 1019.7
20260502161525 52 341 5.0 10.0 0.00 0.00 0.00 48 1019.7
20260502161025 52 315 5.0 10.0 0.00 0.00 0.00 50 1019.8
20260502160529 52 299 5.0 9.0 0.00 0.00 0.00 47 1019.7
20260502152017 50 336 2.0 6.0 0.00 0.00 0.00 49 1019.9
20260502151517 50 323 2.0 9.0 0.00 0.00 0.00 47 1019.9
20260502151016 50 25 3.0 9.0 0.00 0.00 0.00 47 1019.9
20260502150516 49 311 5.0 8.0 0.00 0.00 0.00 47 1019.9
20260502130551 42 319 2.0 3.0 0.00 0.00 0.00 77 1019.6
20260502123546 40 310 1.0 2.0 0.00 0.00 0.00 84 1019.6
20260502123058 40 88 0.0 0.0 0.00 0.00 0.00 86 1019.5
20260502122544 39 88 0.0 0.0 0.00 0.00 0.00 87 1019.4
20260502122043 39 88 0.0 0.0 0.00 0.00 0.00 88 1019.5
20260502121542 39 88 0.0 0.0 0.00 0.00 0.00 89 1019.4
20260502121041 38 88 0.0 0.0 0.00 0.00 0.00 90 1019.5
20260502120542 38 88 0.0 0.0 0.00 0.00 0.00 90 1019.4
20260502115540 37 88 0.0 0.0 0.00 0.00 0.00 93 1019.3
20260502115040 36 88 0.0 0.0 0.00 0.00 0.00 93 1019.3
20260502114544 36 88 0.0 0.0 0.00 0.00 0.00 93 1019.2
20260502114041 34 88 0.0 1.0 0.00 0.00 0.00 93 1019.2
20260502113537 34 88 0.0 2.0 0.00 0.00 0.00 92 1019.1
20260502113043 33 88 0.0 2.0 0.00 0.00 0.00 92 1019.1
20260502112538 33 88 0.0 0.0 0.00 0.00 0.00 91 1019.0
20260502112036 33 88 0.0 0.0 0.00 0.00 0.00 91 1019.0
20260502111542 33 88 0.0 0.0 0.00 0.00 0.00 91 1018.9
20260502111038 33 40 0.0 0.0 0.00 0.00 0.00 91 1018.9
20260502110535 34 40 0.0 0.0 0.00 0.00 0.00 91 1018.8
20260502110038 34 40 0.0 1.0 0.00 0.00 0.00 91 1018.9
20260502105535 34 40 0.0 1.0 0.00 0.01 0.00 91 1018.8
20260502105034 34 40 0.0 0.0 0.00 0.01 0.00 91 1018.8
20260502104539 34 40 0.0 0.0 0.00 0.01 0.00 90 1018.8
20260502104033 34 40 0.0 1.0 0.00 0.01 0.00 91 1018.8
20260502103533 34 40 0.0 1.0 0.00 0.01 0.00 91 1018.8
20260502103033 34 40 0.0 0.0 0.00 0.01 0.00 91 1018.8
20260502102533 34 40 0.0 0.0 0.00 0.01 0.00 90 1018.8
20260502102032 34 40 0.0 0.0 0.00 0.01 0.00 90 1018.8
20260502101530 34 40 0.0 0.0 0.00 0.01 0.00 89 1018.8
20260502101029 35 40 0.0 2.0 0.00 0.01 0.00 89 1018.8
20260502100530 35 40 0.0 2.0 0.00 0.01 0.00 90 1018.7
20260502091521 37 40 0.0 1.0 0.00 0.01 0.00 86 1018.5
20260502091021 37 40 0.0 2.0 0.00 0.01 0.00 86 1018.6
20260502090527 37 40 1.0 2.0 0.00 0.01 0.00 87 1018.6
20260502071515 39 40 0.0 2.0 0.00 0.01 0.00 84 1018.3
20260502071014 38 40 0.0 2.0 0.00 0.01 0.00 84 1018.5
20260502070514 38 40 0.0 3.0 0.00 0.01 0.00 84 1018.5
20260502070013 38 40 1.0 3.0 0.00 0.01 0.00 84 1018.5
20260502065514 38 40 1.0 3.0 0.00 0.01 0.00 84 1018.5
20260502065011 38 52 1.0 3.0 0.00 0.01 0.00 84 1018.6
20260502064510 38 52 1.0 3.0 0.00 0.01 0.00 84 1018.6
20260502064010 38 52 1.0 2.0 0.00 0.01 0.00 83 1018.6
20260502063510 38 52 0.0 3.0 0.00 0.01 0.00 82 1018.7
20260502063009 38 52 0.0 3.0 0.00 0.01 0.00 82 1018.7
20260502062509 38 52 1.0 3.0 0.00 0.01 0.00 83 1018.8
20260502062010 38 52 1.0 2.0 0.00 0.01 0.00 82 1018.8
20260502061508 38 52 0.0 2.0 0.00 0.01 0.00 82 1018.9
20260502061007 38 52 0.0 2.0 0.00 0.01 0.00 82 1018.9
20260502060507 38 52 0.0 1.0 0.00 0.01 0.00 83 1018.8
20260502060006 38 52 0.0 2.0 0.00 0.01 0.00 83 1018.9
20260502055506 38 52 0.0 2.0 0.00 0.08 0.00 83 1018.9
20260502055006 38 52 0.0 2.0 0.00 0.08 0.00 83 1018.9
20260502054505 38 52 1.0 2.0 0.00 0.08 0.00 82 1018.9
20260502054007 38 52 0.0 0.0 0.00 0.08 0.00 81 1018.9
20260502053504 38 52 0.0 1.0 0.00 0.08 0.00 81 1019.0
20260502053004 38 52 0.0 2.0 0.00 0.08 0.00 81 1019.0
20260502052506 38 52 0.0 2.0 0.00 0.08 0.00 80 1019.0
20260502052004 38 52 0.0 2.0 0.00 0.08 0.00 80 1019.0
20260502051505 37 52 0.0 3.0 0.00 0.08 0.00 82 1019.0
20260502051100 37 52 0.0 3.0 0.00 0.08 0.00 82 1019.0
20260502050559 37 52 1.0 3.0 0.00 0.08 0.00 83 1018.9
20260502050104 37 52 2.0 5.0 0.00 0.08 0.00 83 1019.0
20260502045559 37 49 2.0 5.0 0.00 0.10 0.08 83 1019.0
20260502045058 37 45 2.0 5.0 0.00 0.10 0.08 82 1019.0
20260502044558 37 48 2.0 5.0 0.00 0.10 0.08 82 1019.0
20260502044101 37 60 2.0 5.0 0.00 0.10 0.08 81 1019.0
20260502043557 37 52 2.0 5.0 0.00 0.10 0.08 81 1018.9
20260502043107 38 49 3.0 6.0 0.00 0.10 0.08 80 1018.9
20260502042557 38 47 3.0 6.0 0.00 0.10 0.08 80 1018.8
20260502042055 38 42 4.0 6.0 0.00 0.10 0.08 80 1018.9
20260502041556 38 45 3.0 5.0 0.00 0.10 0.08 79 1018.8
20260502041055 37 72 2.0 5.0 0.00 0.10 0.08 80 1018.8
20260502040554 38 60 3.0 5.0 0.00 0.10 0.08 80 1018.8
20260502040054 38 48 3.0 5.0 0.00 0.10 0.08 78 1018.9
20260502035555 38 75 3.0 6.0 0.00 0.10 0.08 77 1018.9
20260502035059 38 63 4.0 8.0 0.00 0.10 0.08 77 1018.8
20260502034551 38 59 4.0 8.0 0.00 0.10 0.08 77 1018.8
20260502034052 39 47 4.0 9.0 0.00 0.10 0.08 77 1018.8
20260502033553 39 54 3.0 7.0 0.00 0.10 0.08 77 1018.8
20260502033058 39 69 4.0 9.0 0.00 0.10 0.08 77 1018.7
20260502032548 39 53 5.0 9.0 0.00 0.10 0.08 76 1018.6
20260502032047 39 48 5.0 10.0 0.00 0.10 0.08 76 1018.5
20260502031551 39 65 7.0 10.0 0.00 0.10 0.08 75 1018.5
20260502031047 40 51 5.0 9.0 0.00 0.10 0.08 76 1018.4
20260502030545 40 48 6.0 11.0 0.00 0.10 0.08 75 1018.4
20260502030055 40 44 6.0 11.0 0.00 0.10 0.08 75 1018.3
20260502025543 40 69 5.0 9.0 0.00 0.10 0.08 75 1018.4
20260502025042 40 48 4.0 8.0 0.00 0.10 0.08 76 1018.4
20260502024544 40 51 5.0 9.0 0.00 0.10 0.08 74 1018.3
20260502024042 41 29 5.0 11.0 0.00 0.10 0.08 74 1018.2
20260502023539 41 40 6.0 12.0 0.00 0.10 0.08 72 1018.1
20260502023057 41 38 7.0 12.0 0.00 0.10 0.08 72 1017.9
20260502022536 41 65 7.0 12.0 0.00 0.10 0.08 71 1017.9
20260502022036 41 42 7.0 10.0 0.00 0.10 0.08 72 1017.8
20260502021541 42 52 6.0 11.0 0.00 0.10 0.08 73 1017.8
20260502021033 42 50 6.0 13.0 0.00 0.10 0.08 73 1017.6
20260502020533 42 34 6.0 13.0 0.00 0.10 0.08 73 1017.6
20260502020032 42 42 6.0 12.0 0.00 0.10 0.08 74 1017.5
20260502015531 43 51 7.0 12.0 0.00 0.11 0.08 74 1017.4
20260502015031 43 22 7.0 12.0 0.00 0.11 0.08 75 1017.3
20260502014628 43 10 7.0 11.0 0.00 0.11 0.08 76 1017.2
20260502014029 43 40 5.0 11.0 0.00 0.11 0.08 76 1017.1
20260502013528 43 61 4.0 7.0 0.00 0.11 0.08 77 1017.0
20260502013027 43 48 3.0 6.0 0.00 0.11 0.08 76 1017.0
20260502012531 44 60 4.0 7.0 0.00 0.11 0.08 75 1016.8
20260502012030 44 59 3.0 7.0 0.00 0.11 0.08 74 1016.7
20260502011525 44 38 3.0 7.0 0.00 0.11 0.08 74 1016.7
20260502011023 44 74 2.0 7.0 0.00 0.11 0.08 73 1016.6
20260502010529 45 59 3.0 8.0 0.00 0.11 0.08 72 1016.5
20260502010023 45 71 3.0 10.0 0.00 0.11 0.08 72 1016.4
20260502005523 46 69 4.0 11.0 0.00 0.13 0.08 71 1016.4
20260502005022 46 33 6.0 11.0 0.00 0.13 0.08 70 1016.5
20260502004522 47 42 4.0 8.0 0.00 0.13 0.08 70 1016.3
20260502004024 47 32 4.0 8.0 0.00 0.13 0.08 68 1016.2
20260502003521 47 49 3.0 5.0 0.00 0.13 0.08 68 1016.2
20260502003026 47 35 3.0 5.0 0.00 0.13 0.08 68 1016.2
20260502002521 48 44 4.0 7.0 0.00 0.13 0.08 68 1016.2
20260502002021 48 37 4.0 7.0 0.00 0.13 0.08 67 1016.1
20260502001522 48 26 3.0 7.0 0.00 0.13 0.08 68 1016.1
20260502001020 49 5 3.0 7.0 0.00 0.13 0.08 66 1016.2
20260502000521 49 28 3.0 8.0 0.00 0.13 0.08 66 1016.2
20260502000020 49 24 5.0 8.0 0.00 0.13 0.08 65 1016.1
20260501235521 49 21 5.0 8.0 0.00 0.14 0.08 66 1016.0
20260501235020 49 16 5.0 8.0 0.00 0.14 0.08 66 1016.1
20260501234522 49 24 6.0 10.0 0.00 0.14 0.08 66 1016.0